| time (UTC) | temp C | wind direction | speed KPH | gust KPH | rain 1hr cm | rain 24hr cm | rain mn cm | humidity % | barometer mb |
| 20260505153053 | 25 | 294 | 1.6 | 11.3 | 0.00 | 0.00 | 0.00 | 44 | 1010.4 |
| 20260505151618 | 25 | 0 | 3.2 | 11.3 | 0.00 | 0.00 | 0.00 | 48 | 1010.4 |
| 20260505124554 | 19 | 0 | 1.6 | 9.7 | 0.00 | 0.00 | 0.00 | 63 | 1010.7 |
| 20260505123053 | 18 | 0 | 3.2 | 12.9 | 0.00 | 0.00 | 0.00 | 67 | 1010.8 |
| 20260505121554 | 17 | 0 | 0.0 | 4.8 | 0.00 | 0.00 | 0.00 | 69 | 1010.9 |
| 20260505120111 | 17 | 281 | 0.0 | 4.8 | 0.00 | 0.00 | 0.00 | 70 | 1010.9 |
| 20260505114555 | 16 | 0 | 0.0 | 3.2 | 0.00 | 0.00 | 0.00 | 71 | 1010.8 |
| 20260505113054 | 16 | 0 | 0.0 | 0.0 | 0.00 | 0.00 | 0.00 | 74 | 1010.8 |
| 20260505111553 | 15 | 0 | 0.0 | 3.2 | 0.00 | 0.00 | 0.00 | 75 | 1010.8 |
| 20260505101555 | 15 | 0 | 0.0 | 4.8 | 0.00 | 0.00 | 0.00 | 75 | 1010.7 |
| 20260505100053 | 15 | 0 | 0.0 | 6.4 | 0.00 | 0.00 | 0.00 | 76 | 1010.4 |
| 20260505094551 | 14 | 0 | 0.0 | 1.6 | 0.00 | 0.00 | 0.00 | 77 | 1009.9 |
| 20260505093055 | 14 | 0 | 0.0 | 1.6 | 0.00 | 0.00 | 0.00 | 77 | 1009.8 |
| 20260505091553 | 14 | 0 | 0.0 | 3.2 | 0.00 | 0.00 | 0.00 | 77 | 1009.8 |
| 20260505090056 | 14 | 0 | 0.0 | 1.6 | 0.00 | 0.00 | 0.00 | 77 | 1009.8 |
| 20260505084554 | 14 | 0 | 0.0 | 4.8 | 0.00 | 0.00 | 0.00 | 77 | 1009.9 |
| 20260505083054 | 13 | 0 | 0.0 | 1.6 | 0.00 | 0.00 | 0.00 | 78 | 1009.8 |
| 20260505081600 | 13 | 0 | 0.0 | 1.6 | 0.00 | 0.00 | 0.00 | 78 | 1010.0 |
| 20260505080053 | 13 | 0 | 0.0 | 0.0 | 0.00 | 0.00 | 0.00 | 76 | 1010.0 |
| 20260505074558 | 13 | 0 | 0.0 | 1.6 | 0.00 | 0.00 | 0.00 | 75 | 1010.0 |
| 20260505073105 | 14 | 0 | 0.0 | 1.6 | 0.00 | 0.00 | 0.00 | 74 | 1009.9 |
| 20260505071600 | 14 | 0 | 0.0 | 1.6 | 0.00 | 0.00 | 0.00 | 74 | 1009.7 |
| 20260505070056 | 14 | 0 | 0.0 | 3.2 | 0.00 | 0.00 | 0.00 | 73 | 1009.7 |
| 20260505064555 | 14 | 0 | 0.0 | 0.0 | 0.00 | 0.00 | 0.00 | 72 | 1009.7 |
| 20260505063055 | 14 | 0 | 0.0 | 0.0 | 0.00 | 0.00 | 0.00 | 72 | 1009.6 |
| 20260505061600 | 14 | 0 | 0.0 | 1.6 | 0.00 | 0.00 | 0.00 | 71 | 1009.7 |
| 20260505054626 | 13 | 0 | 0.0 | 0.0 | 0.00 | 0.00 | 0.00 | 72 | 1009.9 |
| 20260505053107 | 13 | 0 | 0.0 | 0.0 | 0.00 | 0.00 | 0.00 | 70 | 1009.9 |
| 20260505051553 | 14 | 0 | 0.0 | 0.0 | 0.00 | 0.00 | 0.00 | 70 | 1010.1 |
| 20260505041559 | 15 | 0 | 0.0 | 1.6 | 0.00 | 0.00 | 0.00 | 67 | 1010.3 |
| 20260505040057 | 15 | 0 | 0.0 | 1.6 | 0.00 | 0.00 | 0.00 | 67 | 1010.2 |
| 20260505034558 | 15 | 0 | 0.0 | 0.0 | 0.00 | 0.00 | 0.00 | 66 | 1010.4 |
| 20260505033055 | 15 | 0 | 0.0 | 1.6 | 0.00 | 0.00 | 0.00 | 65 | 1010.3 |
| 20260505031610 | 15 | 0 | 0.0 | 0.0 | 0.00 | 0.00 | 0.00 | 63 | 1010.4 |
| 20260505030053 | 15 | 0 | 0.0 | 1.6 | 0.00 | 0.00 | 0.00 | 62 | 1010.6 |
| 20260505024559 | 16 | 0 | 0.0 | 1.6 | 0.00 | 0.00 | 0.00 | 60 | 1010.5 |
| 20260505023116 | 16 | 0 | 0.0 | 1.6 | 0.00 | 0.00 | 0.00 | 58 | 1010.6 |
| 20260505021556 | 16 | 0 | 0.0 | 1.6 | 0.00 | 0.00 | 0.00 | 57 | 1010.7 |
| 20260505020057 | 16 | 0 | 0.0 | 1.6 | 0.00 | 0.00 | 0.00 | 55 | 1010.7 |
| 20260505014604 | 17 | 0 | 0.0 | 1.6 | 0.00 | 0.00 | 0.00 | 54 | 1010.7 |
| 20260505013107 | 17 | 0 | 0.0 | 1.6 | 0.00 | 0.00 | 0.00 | 51 | 1010.6 |
| 20260505011555 | 17 | 0 | 0.0 | 1.6 | 0.00 | 0.00 | 0.00 | 48 | 1010.4 |
| 20260505010057 | 18 | 0 | 0.0 | 0.0 | 0.00 | 0.00 | 0.00 | 44 | 1010.2 |
| 20260505004558 | 19 | 0 | 0.0 | 1.6 | 0.00 | 0.00 | 0.00 | 42 | 1010.0 |
| 20260505003057 | 19 | 0 | 0.0 | 4.8 | 0.00 | 0.00 | 0.00 | 40 | 1009.8 |
| 20260505001555 | 20 | 0 | 0.0 | 6.4 | 0.00 | 0.00 | 0.00 | 38 | 1009.7 |
| 20260505000113 | 20 | 0 | 0.0 | 4.8 | 0.00 | 0.00 | 0.00 | 37 | 1009.3 |
| 20260504234552 | 21 | 0 | 0.0 | 6.4 | 0.00 | 0.00 | 0.00 | 36 | 1009.2 |
| 20260504233100 | 21 | 278 | 1.6 | 12.9 | 0.00 | 0.00 | 0.00 | 34 | 1009.1 |
| 20260504231603 | 22 | 288 | 1.6 | 14.5 | 0.00 | 0.00 | 0.00 | 33 | 1009.0 |
| 20260504230132 | 22 | 258 | 0.0 | 14.5 | 0.00 | 0.00 | 0.00 | 33 | 1008.8 |
| 20260504224555 | 23 | 271 | 1.6 | 12.9 | 0.00 | 0.00 | 0.00 | 31 | 1008.8 |
| 20260504223051 | 23 | 272 | 4.8 | 14.5 | 0.00 | 0.00 | 0.00 | 31 | 1008.8 |
| 20260504221603 | 23 | 0 | 1.6 | 16.1 | 0.00 | 0.00 | 0.00 | 33 | 1008.9 |
| 20260504220100 | 23 | 267 | 3.2 | 16.1 | 0.00 | 0.00 | 0.00 | 29 | 1009.1 |
| 20260504214556 | 23 | 265 | 4.8 | 20.9 | 0.00 | 0.00 | 0.00 | 33 | 1009.1 |
| 20260504213053 | 23 | 289 | 4.8 | 14.5 | 0.00 | 0.00 | 0.00 | 30 | 1009.3 |
| 20260504211553 | 23 | 0 | 3.2 | 17.7 | 0.00 | 0.00 | 0.00 | 30 | 1009.3 |
| 20260504210054 | 23 | 273 | 4.8 | 17.7 | 0.00 | 0.00 | 0.00 | 31 | 1009.3 |
| 20260504204602 | 23 | 0 | 3.2 | 20.9 | 0.00 | 0.00 | 0.00 | 30 | 1009.2 |
| 20260504203102 | 23 | 254 | 3.2 | 16.1 | 0.00 | 0.00 | 0.00 | 29 | 1009.2 |
| 20260504201552 | 23 | 272 | 1.6 | 12.9 | 0.00 | 0.00 | 0.00 | 31 | 1009.3 |
| 20260504200054 | 23 | 229 | 1.6 | 14.5 | 0.00 | 0.00 | 0.00 | 30 | 1009.3 |
| 20260504194553 | 23 | 276 | 4.8 | 14.5 | 0.00 | 0.00 | 0.00 | 31 | 1009.4 |
| 20260504193056 | 23 | 256 | 1.6 | 16.1 | 0.00 | 0.00 | 0.00 | 32 | 1009.5 |
| 20260504191606 | 23 | 0 | 1.6 | 12.9 | 0.00 | 0.00 | 0.00 | 34 | 1009.6 |
| 20260504190112 | 23 | 306 | 1.6 | 9.7 | 0.00 | 0.00 | 0.00 | 34 | 1009.9 |
| 20260504184555 | 22 | 310 | 1.6 | 16.1 | 0.00 | 0.00 | 0.00 | 34 | 1010.1 |
| 20260504183101 | 22 | 313 | 1.6 | 19.3 | 0.00 | 0.00 | 0.00 | 34 | 1010.4 |
| 20260504181557 | 22 | 264 | 1.6 | 17.7 | 0.00 | 0.00 | 0.00 | 34 | 1010.6 |
| 20260504180059 | 22 | 260 | 1.6 | 16.1 | 0.00 | 0.00 | 0.00 | 35 | 1010.6 |
| 20260504174554 | 21 | 272 | 3.2 | 14.5 | 0.00 | 0.00 | 0.00 | 34 | 1011.0 |
| 20260504173057 | 21 | 255 | 3.2 | 19.3 | 0.00 | 0.00 | 0.00 | 36 | 1011.0 |
| 20260504171553 | 21 | 258 | 1.6 | 14.5 | 0.00 | 0.00 | 0.00 | 37 | 1011.1 |